M I D A S
Marine Information and Data Acquisition System
Tripno 1500 of the Zeeleeuw from 2008-06-10 06:42:01 to 2008-06-10 13:07:52
Back to CruiseResearch ActivitiesStationsMapUnderway DataData graphs

EquipmentUnitsComments
TimeDGPSUTC
LatitudeDGPSDM.mWGS84
LongitudeDGPSDM.mWGS84
SpeedMeteo Stationm/sRelative wind speed
DirectionMeteo StationdegRelative wind direction
TemperatureMeteo Stationdeg CelciusAir temperature
PressureMeteo StationPaAtmospheric pressure
HumidityMeteo Station%Relative humidity
Missing or incorrect values are displayed as -999
Metereological data collected by the RV Zeeleeuw from 2008-06-10 06:14:03 to 2008-06-10 13:10:29
                                                                                    Next 1000 lines
Time Latitude Longitude Speed Direction Temperature Pressure Humidity
2008-06-10 06:14:13 51°13.623 2°56.045 -999 -999 -999 -999 -999
2008-06-10 06:14:18 51°13.624 2°56.042 -999 -999 -999 -999 -999
2008-06-10 06:14:23 51°13.624 2°56.038 -999 -999 -999 -999 -999
2008-06-10 06:14:28 51°13.626 2°56.033 -999 -999 -999 -999 -999
2008-06-10 06:14:33 51°13.628 2°56.027 -999 -999 -999 -999 -999
2008-06-10 06:14:38 51°13.629 2°56.021 -999 -999 -999 -999 -999
2008-06-10 06:14:43 51°13.632 2°56.014 -999 -999 -999 -999 -999
2008-06-10 06:14:48 51°13.634 2°56.006 -999 -999 -999 -999 -999
2008-06-10 06:14:53 51°13.636 2°55.998 -999 -999 -999 -999 -999
2008-06-10 06:14:58 51°13.639 2°55.989 -999 -999 -999 -999 -999
2008-06-10 06:15:03 51°13.641 2°55.98 -999 -999 -999 -999 -999
2008-06-10 06:15:08 51°13.644 2°55.97 -999 -999 -999 -999 -999
2008-06-10 06:15:13 51°13.647 2°55.96 -999 -999 -999 -999 -999
2008-06-10 06:15:18 51°13.65 2°55.95 -999 -999 -999 -999 -999
2008-06-10 06:15:23 51°13.654 2°55.94 -999 -999 -999 -999 -999
2008-06-10 06:15:28 51°13.657 2°55.929 -999 -999 -999 -999 -999
2008-06-10 06:15:33 51°13.66 2°55.918 -999 -999 -999 -999 -999
2008-06-10 06:15:38 51°13.663 2°55.908 -999 -999 -999 -999 -999
2008-06-10 06:15:43 51°13.666 2°55.897 -999 -999 -999 -999 -999
2008-06-10 06:15:48 51°13.669 2°55.886 -999 -999 -999 -999 -999
2008-06-10 06:15:53 51°13.672 2°55.875 -999 -999 -999 -999 -999
2008-06-10 06:15:58 51°13.674 2°55.864 -999 -999 -999 -999 -999
2008-06-10 06:16:03 51°13.676 2°55.853 -999 -999 -999 -999 -999
2008-06-10 06:16:08 51°13.678 2°55.843 -999 -999 -999 -999 -999
2008-06-10 06:16:13 51°13.679 2°55.834 -999 -999 -999 -999 -999
2008-06-10 06:16:18 51°13.68 2°55.825 -999 -999 -999 -999 -999
2008-06-10 06:16:23 51°13.681 2°55.816 -999 -999 -999 -999 -999
2008-06-10 06:16:28 51°13.682 2°55.808 -999 -999 -999 -999 -999
2008-06-10 06:16:33 51°13.683 2°55.8 -999 -999 -999 -999 -999
2008-06-10 06:16:38 51°13.684 2°55.793 -999 -999 -999 -999 -999
2008-06-10 06:16:43 51°13.685 2°55.786 -999 -999 -999 -999 -999
2008-06-10 06:16:48 51°13.686 2°55.779 -999 -999 -999 -999 -999
2008-06-10 06:16:53 51°13.686 2°55.772 -999 -999 -999 -999 -999
2008-06-10 06:16:58 51°13.686 2°55.766 -999 -999 -999 -999 -999
2008-06-10 06:17:03 51°13.687 2°55.761 -999 -999 -999 -999 -999
2008-06-10 06:17:08 51°13.687 2°55.756 -999 -999 -999 -999 -999
2008-06-10 06:17:13 51°13.688 2°55.751 -999 -999 -999 -999 -999
2008-06-10 06:17:18 51°13.688 2°55.747 -999 -999 -999 -999 -999
2008-06-10 06:17:23 51°13.688 2°55.743 -999 -999 -999 -999 -999
2008-06-10 06:17:28 51°13.688 2°55.74 -999 -999 -999 -999 -999
2008-06-10 06:17:33 51°13.687 2°55.737 -999 -999 -999 -999 -999
2008-06-10 06:17:38 51°13.687 2°55.735 -999 -999 -999 -999 -999
2008-06-10 06:17:43 51°13.688 2°55.734 -999 -999 -999 -999 -999
2008-06-10 06:17:48 51°13.688 2°55.733 -999 -999 -999 -999 -999
2008-06-10 06:17:53 51°13.689 2°55.734 -999 -999 -999 -999 -999
2008-06-10 06:17:58 51°13.69 2°55.735 -999 -999 -999 -999 -999
2008-06-10 06:18:03 51°13.692 2°55.737 -999 -999 -999 -999 -999
2008-06-10 06:18:08 51°13.695 2°55.74 -999 -999 -999 -999 -999
2008-06-10 06:18:13 51°13.699 2°55.743 -999 -999 -999 -999 -999
2008-06-10 06:18:18 51°13.703 2°55.745 -999 -999 -999 -999 -999
2008-06-10 06:18:23 51°13.708 2°55.746 -999 -999 -999 -999 -999
2008-06-10 06:18:28 51°13.713 2°55.746 -999 -999 -999 -999 -999
2008-06-10 06:18:33 51°13.719 2°55.744 -999 -999 -999 -999 -999
2008-06-10 06:18:38 51°13.725 2°55.741 -999 -999 -999 -999 -999
2008-06-10 06:18:43 51°13.732 2°55.736 -999 -999 -999 -999 -999
2008-06-10 06:18:48 51°13.739 2°55.729 -999 -999 -999 -999 -999
2008-06-10 06:18:53 51°13.746 2°55.721 -999 -999 -999 -999 -999
2008-06-10 06:18:58 51°13.755 2°55.712 -999 -999 -999 -999 -999
2008-06-10 06:19:03 51°13.764 2°55.703 -999 -999 -999 -999 -999
2008-06-10 06:19:08 51°13.774 2°55.693 -999 -999 -999 -999 -999
2008-06-10 06:19:13 51°13.784 2°55.682 -999 -999 -999 -999 -999
2008-06-10 06:19:18 51°13.793 2°55.673 -999 -999 -999 -999 -999
2008-06-10 06:19:23 51°13.803 2°55.664 -999 -999 -999 -999 -999
2008-06-10 06:19:28 51°13.811 2°55.656 -999 -999 -999 -999 -999
2008-06-10 06:19:33 51°13.82 2°55.648 -999 -999 -999 -999 -999
2008-06-10 06:19:38 51°13.829 2°55.641 -999 -999 -999 -999 -999
2008-06-10 06:19:43 51°13.838 2°55.633 -999 -999 -999 -999 -999
2008-06-10 06:19:48 51°13.848 2°55.625 -999 -999 -999 -999 -999
2008-06-10 06:19:53 51°13.858 2°55.617 -999 -999 -999 -999 -999
2008-06-10 06:19:58 51°13.868 2°55.609 -999 -999 -999 -999 -999
2008-06-10 06:20:03 51°13.879 2°55.601 -999 -999 -999 -999 -999
2008-06-10 06:20:08 51°13.89 2°55.592 -999 -999 -999 -999 -999
2008-06-10 06:20:13 51°13.901 2°55.583 -999 -999 -999 -999 -999
2008-06-10 06:20:18 51°13.912 2°55.574 -999 -999 -999 -999 -999
2008-06-10 06:20:23 51°13.924 2°55.566 -999 -999 -999 -999 -999
2008-06-10 06:20:28 51°13.936 2°55.557 -999 -999 -999 -999 -999
2008-06-10 06:20:33 51°13.947 2°55.548 -999 -999 -999 -999 -999
2008-06-10 06:20:38 51°13.959 2°55.539 -999 -999 -999 -999 -999
2008-06-10 06:20:43 51°13.97 2°55.53 -999 -999 -999 -999 -999
2008-06-10 06:20:48 51°13.981 2°55.522 -999 -999 -999 -999 -999
2008-06-10 06:20:53 51°13.992 2°55.514 -999 -999 -999 -999 -999
2008-06-10 06:20:58 51°14.003 2°55.507 -999 -999 -999 -999 -999
2008-06-10 06:21:03 51°14.013 2°55.499 -999 -999 -999 -999 -999
2008-06-10 06:21:08 51°14.023 2°55.491 -999 -999 -999 -999 -999
2008-06-10 06:21:13 51°14.032 2°55.484 -999 -999 -999 -999 -999
2008-06-10 06:21:18 51°14.042 2°55.478 -999 -999 -999 -999 -999
2008-06-10 06:21:23 51°14.05 2°55.471 -999 -999 -999 -999 -999
2008-06-10 06:21:28 51°14.059 2°55.464 -999 -999 -999 -999 -999
2008-06-10 06:21:33 51°14.068 2°55.458 -999 -999 -999 -999 -999
2008-06-10 06:21:38 51°14.077 2°55.451 -999 -999 -999 -999 -999
2008-06-10 06:21:43 51°14.086 2°55.444 -999 -999 -999 -999 -999
2008-06-10 06:21:48 51°14.096 2°55.437 -999 -999 -999 -999 -999
2008-06-10 06:21:53 51°14.107 2°55.429 -999 -999 -999 -999 -999
2008-06-10 06:21:58 51°14.117 2°55.42 -999 -999 -999 -999 -999
2008-06-10 06:22:03 51°14.128 2°55.411 -999 -999 -999 -999 -999
2008-06-10 06:22:08 51°14.139 2°55.402 -999 -999 -999 -999 -999
2008-06-10 06:22:13 51°14.15 2°55.392 -999 -999 -999 -999 -999
2008-06-10 06:22:18 51°14.161 2°55.382 -999 -999 -999 -999 -999
2008-06-10 06:22:23 51°14.172 2°55.371 -999 -999 -999 -999 -999
2008-06-10 06:22:28 51°14.183 2°55.36 -999 -999 -999 -999 -999
2008-06-10 06:22:33 51°14.194 2°55.348 -999 -999 -999 -999 -999
2008-06-10 06:22:38 51°14.204 2°55.335 -999 -999 -999 -999 -999
2008-06-10 06:22:43 51°14.215 2°55.322 -999 -999 -999 -999 -999
2008-06-10 06:22:48 51°14.226 2°55.308 -999 -999 -999 -999 -999
2008-06-10 06:22:53 51°14.236 2°55.292 -999 -999 -999 -999 -999
2008-06-10 06:22:58 51°14.245 2°55.276 -999 -999 -999 -999 -999
2008-06-10 06:23:03 51°14.255 2°55.26 -999 -999 -999 -999 -999
2008-06-10 06:23:08 51°14.265 2°55.243 -999 -999 -999 -999 -999
2008-06-10 06:23:13 51°14.275 2°55.226 -999 -999 -999 -999 -999
2008-06-10 06:23:18 51°14.285 2°55.208 -999 -999 -999 -999 -999
2008-06-10 06:23:23 51°14.295 2°55.189 -999 -999 -999 -999 -999
2008-06-10 06:23:28 51°14.305 2°55.17 -999 -999 -999 -999 -999
2008-06-10 06:23:33 51°14.316 2°55.151 -999 -999 -999 -999 -999
2008-06-10 06:23:38 51°14.326 2°55.13 -999 -999 -999 -999 -999
2008-06-10 06:23:43 51°14.337 2°55.11 -999 -999 -999 -999 -999
2008-06-10 06:23:48 51°14.347 2°55.089 -999 -999 -999 -999 -999
2008-06-10 06:23:53 51°14.359 2°55.07 -999 -999 -999 -999 -999
2008-06-10 06:23:58 51°14.371 2°55.05 -999 -999 -999 -999 -999
2008-06-10 06:24:03 51°14.384 2°55.033 -999 -999 -999 -999 -999
2008-06-10 06:24:08 51°14.397 2°55.014 -999 -999 -999 -999 -999
2008-06-10 06:24:13 51°14.41 2°54.997 -999 -999 -999 -999 -999
2008-06-10 06:24:18 51°14.424 2°54.98 -999 -999 -999 -999 -999
2008-06-10 06:24:23 51°14.437 2°54.963 -999 -999 -999 -999 -999
2008-06-10 06:24:28 51°14.45 2°54.945 -999 -999 -999 -999 -999
2008-06-10 06:24:33 51°14.464 2°54.929 -999 -999 -999 -999 -999
2008-06-10 06:24:38 51°14.478 2°54.912 -999 -999 -999 -999 -999
2008-06-10 06:24:43 51°14.491 2°54.896 -999 -999 -999 -999 -999
2008-06-10 06:24:48 51°14.504 2°54.879 -999 -999 -999 -999 -999
2008-06-10 06:24:53 51°14.517 2°54.861 -999 -999 -999 -999 -999
2008-06-10 06:24:58 51°14.529 2°54.843 -999 -999 -999 -999 -999
2008-06-10 06:25:03 51°14.542 2°54.825 -999 -999 -999 -999 -999
2008-06-10 06:25:08 51°14.555 2°54.808 -999 -999 -999 -999 -999
2008-06-10 06:25:13 51°14.567 2°54.79 -999 -999 -999 -999 -999
2008-06-10 06:25:18 51°14.579 2°54.771 -999 -999 -999 -999 -999
2008-06-10 06:25:23 51°14.591 2°54.753 -999 -999 -999 -999 -999
2008-06-10 06:25:28 51°14.603 2°54.734 -999 -999 -999 -999 -999
2008-06-10 06:25:33 51°14.615 2°54.715 -999 -999 -999 -999 -999
2008-06-10 06:25:38 51°14.626 2°54.696 -999 -999 -999 -999 -999
2008-06-10 06:25:43 51°14.638 2°54.677 -999 -999 -999 -999 -999
2008-06-10 06:25:48 51°14.649 2°54.657 -999 -999 -999 -999 -999
2008-06-10 06:25:53 51°14.66 2°54.637 -999 -999 -999 -999 -999
2008-06-10 06:25:58 51°14.67 2°54.617 -999 -999 -999 -999 -999
2008-06-10 06:26:03 51°14.681 2°54.597 -999 -999 -999 -999 -999
2008-06-10 06:26:08 51°14.692 2°54.576 -999 -999 -999 -999 -999
2008-06-10 06:26:13 51°14.702 2°54.556 -999 -999 -999 -999 -999
2008-06-10 06:26:18 51°14.713 2°54.535 -999 -999 -999 -999 -999
2008-06-10 06:26:23 51°14.724 2°54.515 -999 -999 -999 -999 -999
2008-06-10 06:26:28 51°14.734 2°54.494 -999 -999 -999 -999 -999
2008-06-10 06:26:33 51°14.745 2°54.473 -999 -999 -999 -999 -999
2008-06-10 06:26:38 51°14.755 2°54.452 -999 -999 -999 -999 -999
2008-06-10 06:26:43 51°14.766 2°54.431 -999 -999 -999 -999 -999
2008-06-10 06:26:48 51°14.776 2°54.41 -999 -999 -999 -999 -999
2008-06-10 06:26:53 51°14.787 2°54.389 -999 -999 -999 -999 -999
2008-06-10 06:26:58 51°14.797 2°54.369 -999 -999 -999 -999 -999
2008-06-10 06:27:03 51°14.808 2°54.348 -999 -999 -999 -999 -999
2008-06-10 06:27:08 51°14.819 2°54.327 -999 -999 -999 -999 -999
2008-06-10 06:27:13 51°14.829 2°54.307 -999 -999 -999 -999 -999
2008-06-10 06:27:18 51°14.84 2°54.286 -999 -999 -999 -999 -999
2008-06-10 06:27:23 51°14.851 2°54.266 -999 -999 -999 -999 -999
2008-06-10 06:27:28 51°14.862 2°54.246 -999 -999 -999 -999 -999
2008-06-10 06:27:33 51°14.874 2°54.226 -999 -999 -999 -999 -999
2008-06-10 06:27:38 51°14.886 2°54.206 -999 -999 -999 -999 -999
2008-06-10 06:27:43 51°14.897 2°54.187 -999 -999 -999 -999 -999
2008-06-10 06:27:48 51°14.909 2°54.167 -999 -999 -999 -999 -999
2008-06-10 06:27:53 51°14.92 2°54.147 -999 -999 -999 -999 -999
2008-06-10 06:27:58 51°14.931 2°54.126 -999 -999 -999 -999 -999
2008-06-10 06:28:03 51°14.942 2°54.106 -999 -999 -999 -999 -999
2008-06-10 06:28:08 51°14.952 2°54.084 -999 -999 -999 -999 -999
2008-06-10 06:28:13 51°14.963 2°54.063 -999 -999 -999 -999 -999
2008-06-10 06:28:18 51°14.973 2°54.042 -999 -999 -999 -999 -999
2008-06-10 06:28:23 51°14.984 2°54.021 -999 -999 -999 -999 -999
2008-06-10 06:28:28 51°14.994 2°54 -999 -999 -999 -999 -999
2008-06-10 06:28:33 51°15.005 2°53.979 -999 -999 -999 -999 -999
2008-06-10 06:28:38 51°15.015 2°53.957 -999 -999 -999 -999 -999
2008-06-10 06:28:43 51°15.025 2°53.936 -999 -999 -999 -999 -999
2008-06-10 06:28:48 51°15.036 2°53.914 -999 -999 -999 -999 -999
2008-06-10 06:28:53 51°15.046 2°53.893 -999 -999 -999 -999 -999
2008-06-10 06:28:58 51°15.055 2°53.87 -999 -999 -999 -999 -999
2008-06-10 06:29:03 51°15.064 2°53.848 -999 -999 -999 -999 -999
2008-06-10 06:29:08 51°15.072 2°53.825 -999 -999 -999 -999 -999
2008-06-10 06:29:13 51°15.081 2°53.802 -999 -999 -999 -999 -999
2008-06-10 06:29:18 51°15.089 2°53.779 -999 -999 -999 -999 -999
2008-06-10 06:29:23 51°15.097 2°53.755 -999 -999 -999 -999 -999
2008-06-10 06:29:28 51°15.105 2°53.732 -999 -999 -999 -999 -999
2008-06-10 06:29:33 51°15.111 2°53.707 -999 -999 -999 -999 -999
2008-06-10 06:29:38 51°15.119 2°53.683 -999 -999 -999 -999 -999
2008-06-10 06:29:43 51°15.124 2°53.658 -999 -999 -999 -999 -999
2008-06-10 06:29:48 51°15.131 2°53.634 -999 -999 -999 -999 -999
2008-06-10 06:29:53 51°15.137 2°53.609 -999 -999 -999 -999 -999
2008-06-10 06:29:58 51°15.143 2°53.585 -999 -999 -999 -999 -999
2008-06-10 06:30:03 51°15.148 2°53.56 -999 -999 -999 -999 -999
2008-06-10 06:30:08 51°15.154 2°53.536 -999 -999 -999 -999 -999
2008-06-10 06:30:13 51°15.16 2°53.511 -999 -999 -999 -999 -999
2008-06-10 06:30:18 51°15.165 2°53.487 -999 -999 -999 -999 -999
2008-06-10 06:30:23 51°15.171 2°53.462 -999 -999 -999 -999 -999
2008-06-10 06:30:28 51°15.176 2°53.438 -999 -999 -999 -999 -999
2008-06-10 06:30:33 51°15.182 2°53.413 -999 -999 -999 -999 -999
2008-06-10 06:30:38 51°15.188 2°53.389 -999 -999 -999 -999 -999
2008-06-10 06:30:43 51°15.194 2°53.365 -999 -999 -999 -999 -999
2008-06-10 06:30:48 51°15.199 2°53.34 -999 -999 -999 -999 -999
2008-06-10 06:30:53 51°15.205 2°53.316 -999 -999 -999 -999 -999
2008-06-10 06:30:58 51°15.21 2°53.291 -999 -999 -999 -999 -999
2008-06-10 06:31:03 51°15.216 2°53.267 -999 -999 -999 -999 -999
2008-06-10 06:31:08 51°15.221 2°53.242 -999 -999 -999 -999 -999
2008-06-10 06:31:13 51°15.226 2°53.217 -999 -999 -999 -999 -999
2008-06-10 06:31:18 51°15.231 2°53.192 -999 -999 -999 -999 -999
2008-06-10 06:31:23 51°15.236 2°53.168 -999 -999 -999 -999 -999
2008-06-10 06:31:28 51°15.24 2°53.143 -999 -999 -999 -999 -999
2008-06-10 06:31:33 51°15.245 2°53.118 -999 -999 -999 -999 -999
2008-06-10 06:31:38 51°15.249 2°53.093 -999 -999 -999 -999 -999
2008-06-10 06:31:43 51°15.253 2°53.068 -999 -999 -999 -999 -999
2008-06-10 06:31:48 51°15.257 2°53.043 -999 -999 -999 -999 -999
2008-06-10 06:31:53 51°15.262 2°53.019 -999 -999 -999 -999 -999
2008-06-10 06:31:58 51°15.265 2°52.994 -999 -999 -999 -999 -999
2008-06-10 06:32:03 51°15.27 2°52.969 -999 -999 -999 -999 -999
2008-06-10 06:32:08 51°15.274 2°52.944 -999 -999 -999 -999 -999
2008-06-10 06:32:13 51°15.279 2°52.919 -999 -999 -999 -999 -999
2008-06-10 06:32:18 51°15.283 2°52.894 -999 -999 -999 -999 -999
2008-06-10 06:32:23 51°15.288 2°52.869 -999 -999 -999 -999 -999
2008-06-10 06:32:28 51°15.292 2°52.844 -999 -999 -999 -999 -999
2008-06-10 06:32:33 51°15.297 2°52.819 -999 -999 -999 -999 -999
2008-06-10 06:32:38 51°15.302 2°52.795 -999 -999 -999 -999 -999
2008-06-10 06:32:43 51°15.307 2°52.77 -999 -999 -999 -999 -999
2008-06-10 06:32:48 51°15.313 2°52.745 -999 -999 -999 -999 -999
2008-06-10 06:32:53 51°15.318 2°52.721 -999 -999 -999 -999 -999
2008-06-10 06:32:58 51°15.324 2°52.696 -999 -999 -999 -999 -999
2008-06-10 06:33:03 51°15.33 2°52.672 -999 -999 -999 -999 -999
2008-06-10 06:33:08 51°15.335 2°52.647 -999 -999 -999 -999 -999
2008-06-10 06:33:13 51°15.34 2°52.622 -999 -999 -999 -999 -999
2008-06-10 06:33:18 51°15.346 2°52.598 -999 -999 -999 -999 -999
2008-06-10 06:33:23 51°15.351 2°52.573 -999 -999 -999 -999 -999
2008-06-10 06:33:28 51°15.356 2°52.548 -999 -999 -999 -999 -999
2008-06-10 06:33:33 51°15.362 2°52.524 -999 -999 -999 -999 -999
2008-06-10 06:33:38 51°15.367 2°52.499 -999 -999 -999 -999 -999
2008-06-10 06:33:43 51°15.372 2°52.474 -999 -999 -999 -999 -999
2008-06-10 06:33:48 51°15.376 2°52.449 -999 -999 -999 -999 -999
2008-06-10 06:33:53 51°15.38 2°52.423 -999 -999 -999 -999 -999
2008-06-10 06:33:58 51°15.385 2°52.398 -999 -999 -999 -999 -999
2008-06-10 06:34:03 51°15.389 2°52.373 -999 -999 -999 -999 -999
2008-06-10 06:34:08 51°15.394 2°52.348 -999 -999 -999 -999 -999
2008-06-10 06:34:13 51°15.399 2°52.323 -999 -999 -999 -999 -999
2008-06-10 06:34:18 51°15.403 2°52.298 -999 -999 -999 -999 -999
2008-06-10 06:34:23 51°15.408 2°52.273 -999 -999 -999 -999 -999
2008-06-10 06:34:28 51°15.413 2°52.248 -999 -999 -999 -999 -999
2008-06-10 06:34:33 51°15.418 2°52.223 -999 -999 -999 -999 -999
2008-06-10 06:34:38 51°15.422 2°52.198 -999 -999 -999 -999 -999
2008-06-10 06:34:43 51°15.427 2°52.173 -999 -999 -999 -999 -999
2008-06-10 06:34:48 51°15.431 2°52.148 -999 -999 -999 -999 -999
2008-06-10 06:34:53 51°15.435 2°52.122 -999 -999 -999 -999 -999
2008-06-10 06:34:58 51°15.439 2°52.097 -999 -999 -999 -999 -999
2008-06-10 06:35:03 51°15.443 2°52.072 -999 -999 -999 -999 -999
2008-06-10 06:35:08 51°15.446 2°52.047 -999 -999 -999 -999 -999
2008-06-10 06:35:13 51°15.45 2°52.021 -999 -999 -999 -999 -999
2008-06-10 06:35:18 51°15.454 2°51.996 -999 -999 -999 -999 -999
2008-06-10 06:35:23 51°15.457 2°51.97 -999 -999 -999 -999 -999
2008-06-10 06:35:28 51°15.461 2°51.945 -999 -999 -999 -999 -999
2008-06-10 06:35:33 51°15.465 2°51.92 -999 -999 -999 -999 -999
2008-06-10 06:35:38 51°15.469 2°51.895 -999 -999 -999 -999 -999
2008-06-10 06:35:43 51°15.473 2°51.869 -999 -999 -999 -999 -999
2008-06-10 06:35:48 51°15.477 2°51.844 -999 -999 -999 -999 -999
2008-06-10 06:35:53 51°15.48 2°51.819 -999 -999 -999 -999 -999
2008-06-10 06:35:58 51°15.484 2°51.794 -999 -999 -999 -999 -999
2008-06-10 06:36:03 51°15.488 2°51.768 -999 -999 -999 -999 -999
2008-06-10 06:36:08 51°15.491 2°51.743 -999 -999 -999 -999 -999
2008-06-10 06:36:13 51°15.494 2°51.717 -999 -999 -999 -999 -999
2008-06-10 06:36:18 51°15.497 2°51.692 -999 -999 -999 -999 -999
2008-06-10 06:36:23 51°15.5 2°51.666 -999 -999 -999 -999 -999
2008-06-10 06:36:28 51°15.502 2°51.641 -999 -999 -999 -999 -999
2008-06-10 06:36:33 51°15.504 2°51.615 -999 -999 -999 -999 -999
2008-06-10 06:36:38 51°15.506 2°51.59 -999 -999 -999 -999 -999
2008-06-10 06:36:43 51°15.508 2°51.564 -999 -999 -999 -999 -999
2008-06-10 06:36:48 51°15.51 2°51.538 -999 -999 -999 -999 -999
2008-06-10 06:36:53 51°15.511 2°51.512 -999 -999 -999 -999 -999
2008-06-10 06:36:58 51°15.512 2°51.487 -999 -999 -999 -999 -999
2008-06-10 06:37:03 51°15.513 2°51.461 -999 -999 -999 -999 -999
2008-06-10 06:37:08 51°15.513 2°51.435 -999 -999 -999 -999 -999
2008-06-10 06:37:13 51°15.513 2°51.409 -999 -999 -999 -999 -999
2008-06-10 06:37:18 51°15.513 2°51.383 -999 -999 -999 -999 -999
2008-06-10 06:37:23 51°15.513 2°51.357 -999 -999 -999 -999 -999
2008-06-10 06:37:28 51°15.513 2°51.332 -999 -999 -999 -999 -999
2008-06-10 06:37:33 51°15.513 2°51.306 -999 -999 -999 -999 -999
2008-06-10 06:37:38 51°15.513 2°51.28 -999 -999 -999 -999 -999
2008-06-10 06:37:43 51°15.513 2°51.254 -999 -999 -999 -999 -999
2008-06-10 06:37:48 51°15.512 2°51.229 -999 -999 -999 -999 -999
2008-06-10 06:37:53 51°15.513 2°51.203 -999 -999 -999 -999 -999
2008-06-10 06:37:58 51°15.513 2°51.177 -999 -999 -999 -999 -999
2008-06-10 06:38:03 51°15.513 2°51.151 -999 -999 -999 -999 -999
2008-06-10 06:38:08 51°15.514 2°51.125 -999 -999 -999 -999 -999
2008-06-10 06:38:13 51°15.514 2°51.099 -999 -999 -999 -999 -999
2008-06-10 06:38:18 51°15.516 2°51.073 -999 -999 -999 -999 -999
2008-06-10 06:38:23 51°15.517 2°51.047 -999 -999 -999 -999 -999
2008-06-10 06:38:28 51°15.518 2°51.021 -999 -999 -999 -999 -999
2008-06-10 06:38:33 51°15.519 2°50.995 -999 -999 -999 -999 -999
2008-06-10 06:38:38 51°15.521 2°50.969 -999 -999 -999 -999 -999
2008-06-10 06:38:43 51°15.522 2°50.944 -999 -999 -999 -999 -999
2008-06-10 06:38:48 51°15.524 2°50.918 -999 -999 -999 -999 -999
2008-06-10 06:38:53 51°15.525 2°50.892 -999 -999 -999 -999 -999
2008-06-10 06:38:58 51°15.526 2°50.867 -999 -999 -999 -999 -999
2008-06-10 06:39:03 51°15.528 2°50.841 -999 -999 -999 -999 -999
2008-06-10 06:39:08 51°15.529 2°50.815 -999 -999 -999 -999 -999
2008-06-10 06:39:13 51°15.53 2°50.79 -999 -999 -999 -999 -999
2008-06-10 06:39:18 51°15.531 2°50.764 -999 -999 -999 -999 -999
2008-06-10 06:39:23 51°15.532 2°50.738 -999 -999 -999 -999 -999
2008-06-10 06:39:28 51°15.533 2°50.713 -999 -999 -999 -999 -999
2008-06-10 06:39:33 51°15.533 2°50.687 -999 -999 -999 -999 -999
2008-06-10 06:39:38 51°15.533 2°50.661 -999 -999 -999 -999 -999
2008-06-10 06:39:43 51°15.534 2°50.636 -999 -999 -999 -999 -999
2008-06-10 06:39:48 51°15.534 2°50.61 -999 -999 -999 -999 -999
2008-06-10 06:39:53 51°15.534 2°50.585 -999 -999 -999 -999 -999
2008-06-10 06:39:58 51°15.535 2°50.559 -999 -999 -999 -999 -999
2008-06-10 06:40:03 51°15.535 2°50.533 -999 -999 -999 -999 -999
2008-06-10 06:40:08 51°15.535 2°50.508 -999 -999 -999 -999 -999
2008-06-10 06:40:13 51°15.535 2°50.482 -999 -999 -999 -999 -999
2008-06-10 06:40:18 51°15.535 2°50.457 -999 -999 -999 -999 -999
2008-06-10 06:40:23 51°15.535 2°50.431 -999 -999 -999 -999 -999
2008-06-10 06:40:28 51°15.536 2°50.406 -999 -999 -999 -999 -999
2008-06-10 06:40:33 51°15.536 2°50.38 -999 -999 -999 -999 -999
2008-06-10 06:40:38 51°15.536 2°50.355 -999 -999 -999 -999 -999
2008-06-10 06:40:43 51°15.536 2°50.329 -999 -999 -999 -999 -999
2008-06-10 06:40:48 51°15.536 2°50.303 -999 -999 -999 -999 -999
2008-06-10 06:40:53 51°15.535 2°50.278 -999 -999 -999 -999 -999
2008-06-10 06:40:58 51°15.535 2°50.252 -999 -999 -999 -999 -999
2008-06-10 06:41:03 51°15.534 2°50.226 -999 -999 -999 -999 -999
2008-06-10 06:41:08 51°15.533 2°50.201 -999 -999 -999 -999 -999
2008-06-10 06:41:13 51°15.532 2°50.175 -999 -999 -999 -999 -999
2008-06-10 06:41:18 51°15.531 2°50.15 -999 -999 -999 -999 -999
2008-06-10 06:41:23 51°15.53 2°50.124 -999 -999 -999 -999 -999
2008-06-10 06:41:28 51°15.529 2°50.098 -999 -999 -999 -999 -999
2008-06-10 06:41:33 51°15.528 2°50.073 -999 -999 -999 -999 -999
2008-06-10 06:41:38 51°15.527 2°50.047 -999 -999 -999 -999 -999
2008-06-10 06:41:43 51°15.527 2°50.021 -999 -999 -999 -999 -999
2008-06-10 06:41:48 51°15.526 2°49.995 -999 -999 -999 -999 -999
2008-06-10 06:41:53 51°15.525 2°49.969 -999 -999 -999 -999 -999
2008-06-10 06:41:58 51°15.524 2°49.943 -999 -999 -999 -999 -999
2008-06-10 06:42:03 51°15.525 2°49.917 -999 -999 -999 -999 -999
2008-06-10 06:42:08 51°15.523 2°49.891 -999 -999 -999 -999 -999
2008-06-10 06:42:13 51°15.523 2°49.865 -999 -999 -999 -999 -999
2008-06-10 06:42:18 51°15.522 2°49.839 -999 -999 -999 -999 -999
2008-06-10 06:42:23 51°15.522 2°49.813 -999 -999 -999 -999 -999
2008-06-10 06:42:28 51°15.521 2°49.787 -999 -999 -999 -999 -999
2008-06-10 06:42:33 51°15.52 2°49.762 -999 -999 -999 -999 -999
2008-06-10 06:42:38 51°15.519 2°49.736 -999 -999 -999 -999 -999
2008-06-10 06:42:43 51°15.519 2°49.71 -999 -999 -999 -999 -999
2008-06-10 06:42:48 51°15.521 2°49.685 -999 -999 -999 -999 -999
2008-06-10 06:42:53 51°15.524 2°49.659 -999 -999 -999 -999 -999
2008-06-10 06:42:58 51°15.528 2°49.634 -999 -999 -999 -999 -999
2008-06-10 06:43:03 51°15.532 2°49.609 -999 -999 -999 -999 -999
2008-06-10 06:43:08 51°15.537 2°49.584 -999 -999 -999 -999 -999
2008-06-10 06:43:13 51°15.542 2°49.559 -999 -999 -999 -999 -999
2008-06-10 06:43:18 51°15.548 2°49.534 -999 -999 -999 -999 -999
2008-06-10 06:43:23 51°15.554 2°49.51 -999 -999 -999 -999 -999
2008-06-10 06:43:28 51°15.56 2°49.486 -999 -999 -999 -999 -999
2008-06-10 06:43:33 51°15.567 2°49.462 -999 -999 -999 -999 -999
2008-06-10 06:43:38 51°15.574 2°49.438 -999 -999 -999 -999 -999
2008-06-10 06:43:43 51°15.58 2°49.414 -999 -999 -999 -999 -999
2008-06-10 06:43:48 51°15.586 2°49.39 -999 -999 -999 -999 -999
2008-06-10 06:43:53 51°15.593 2°49.366 -999 -999 -999 -999 -999
2008-06-10 06:43:58 51°15.598 2°49.341 -999 -999 -999 -999 -999
2008-06-10 06:44:03 51°15.603 2°49.316 -999 -999 -999 -999 -999
2008-06-10 06:44:08 51°15.608 2°49.291 -999 -999 -999 -999 -999
2008-06-10 06:44:13 51°15.613 2°49.266 -999 -999 -999 -999 -999
2008-06-10 06:44:18 51°15.618 2°49.241 -999 -999 -999 -999 -999
2008-06-10 06:44:23 51°15.623 2°49.216 -999 -999 -999 -999 -999
2008-06-10 06:44:28 51°15.627 2°49.191 -999 -999 -999 -999 -999
2008-06-10 06:44:33 51°15.632 2°49.166 -999 -999 -999 -999 -999
2008-06-10 06:44:38 51°15.637 2°49.14 -999 -999 -999 -999 -999
2008-06-10 06:44:43 51°15.642 2°49.115 -999 -999 -999 -999 -999
2008-06-10 06:44:48 51°15.647 2°49.09 -999 -999 -999 -999 -999
2008-06-10 06:44:53 51°15.652 2°49.064 -999 -999 -999 -999 -999
2008-06-10 06:44:58 51°15.657 2°49.039 -999 -999 -999 -999 -999
2008-06-10 06:45:03 51°15.662 2°49.014 -999 -999 -999 -999 -999
2008-06-10 06:45:08 51°15.667 2°48.989 -999 -999 -999 -999 -999
2008-06-10 06:45:13 51°15.672 2°48.963 -999 -999 -999 -999 -999
2008-06-10 06:45:18 51°15.677 2°48.938 -999 -999 -999 -999 -999
2008-06-10 06:45:23 51°15.682 2°48.912 -999 -999 -999 -999 -999
2008-06-10 06:45:28 51°15.687 2°48.887 -999 -999 -999 -999 -999
2008-06-10 06:45:33 51°15.692 2°48.862 -999 -999 -999 -999 -999
2008-06-10 06:45:38 51°15.696 2°48.836 -999 -999 -999 -999 -999
2008-06-10 06:45:43 51°15.701 2°48.811 -999 -999 -999 -999 -999
2008-06-10 06:45:48 51°15.706 2°48.786 -999 -999 -999 -999 -999
2008-06-10 06:45:53 51°15.711 2°48.76 -999 -999 -999 -999 -999
2008-06-10 06:45:58 51°15.715 2°48.735 -999 -999 -999 -999 -999
2008-06-10 06:46:03 51°15.719 2°48.709 -999 -999 -999 -999 -999
2008-06-10 06:46:08 51°15.723 2°48.683 -999 -999 -999 -999 -999
2008-06-10 06:46:13 51°15.727 2°48.658 -999 -999 -999 -999 -999
2008-06-10 06:46:18 51°15.73 2°48.632 -999 -999 -999 -999 -999
2008-06-10 06:46:23 51°15.734 2°48.606 -999 -999 -999 -999 -999
2008-06-10 06:46:28 51°15.737 2°48.58 -999 -999 -999 -999 -999
2008-06-10 06:46:33 51°15.74 2°48.554 -999 -999 -999 -999 -999
2008-06-10 06:46:38 51°15.743 2°48.528 -999 -999 -999 -999 -999
2008-06-10 06:46:43 51°15.746 2°48.503 -999 -999 -999 -999 -999
2008-06-10 06:46:48 51°15.749 2°48.477 -999 -999 -999 -999 -999
2008-06-10 06:46:53 51°15.752 2°48.451 -999 -999 -999 -999 -999
2008-06-10 06:46:58 51°15.755 2°48.425 -999 -999 -999 -999 -999
2008-06-10 06:47:03 51°15.758 2°48.399 -999 -999 -999 -999 -999
2008-06-10 06:47:08 51°15.761 2°48.373 -999 -999 -999 -999 -999
2008-06-10 06:47:13 51°15.764 2°48.348 -999 -999 -999 -999 -999
2008-06-10 06:47:18 51°15.766 2°48.322 -999 -999 -999 -999 -999
2008-06-10 06:47:23 51°15.768 2°48.296 -999 -999 -999 -999 -999
2008-06-10 06:47:28 51°15.77 2°48.27 -999 -999 -999 -999 -999
2008-06-10 06:47:33 51°15.771 2°48.243 -999 -999 -999 -999 -999
2008-06-10 06:47:38 51°15.772 2°48.217 -999 -999 -999 -999 -999
2008-06-10 06:47:43 51°15.772 2°48.191 -999 -999 -999 -999 -999
2008-06-10 06:47:48 51°15.771 2°48.165 -999 -999 -999 -999 -999
2008-06-10 06:47:53 51°15.771 2°48.14 -999 -999 -999 -999 -999
2008-06-10 06:47:58 51°15.769 2°48.114 -999 -999 -999 -999 -999
2008-06-10 06:48:03 51°15.767 2°48.088 -999 -999 -999 -999 -999
2008-06-10 06:48:08 51°15.766 2°48.062 -999 -999 -999 -999 -999
2008-06-10 06:48:13 51°15.763 2°48.037 -999 -999 -999 -999 -999
2008-06-10 06:48:18 51°15.761 2°48.011 -999 -999 -999 -999 -999
2008-06-10 06:48:23 51°15.759 2°47.985 -999 -999 -999 -999 -999
2008-06-10 06:48:28 51°15.757 2°47.959 -999 -999 -999 -999 -999
2008-06-10 06:48:33 51°15.756 2°47.933 -999 -999 -999 -999 -999
2008-06-10 06:48:38 51°15.754 2°47.907 -999 -999 -999 -999 -999
2008-06-10 06:48:43 51°15.753 2°47.881 -999 -999 -999 -999 -999
2008-06-10 06:48:48 51°15.752 2°47.856 -999 -999 -999 -999 -999
2008-06-10 06:48:53 51°15.75 2°47.83 -999 -999 -999 -999 -999
2008-06-10 06:48:58 51°15.75 2°47.804 -999 -999 -999 -999 -999
2008-06-10 06:49:03 51°15.748 2°47.778 -999 -999 -999 -999 -999
2008-06-10 06:49:08 51°15.748 2°47.752 -999 -999 -999 -999 -999
2008-06-10 06:49:13 51°15.747 2°47.726 -999 -999 -999 -999 -999
2008-06-10 06:49:18 51°15.746 2°47.7 -999 -999 -999 -999 -999
2008-06-10 06:49:23 51°15.744 2°47.675 -999 -999 -999 -999 -999
2008-06-10 06:49:28 51°15.743 2°47.649 -999 -999 -999 -999 -999
2008-06-10 06:49:33 51°15.741 2°47.623 -999 -999 -999 -999 -999
2008-06-10 06:49:38 51°15.74 2°47.598 -999 -999 -999 -999 -999
2008-06-10 06:49:43 51°15.738 2°47.572 -999 -999 -999 -999 -999
2008-06-10 06:49:48 51°15.736 2°47.547 -999 -999 -999 -999 -999
2008-06-10 06:49:53 51°15.734 2°47.521 -999 -999 -999 -999 -999
2008-06-10 06:49:58 51°15.733 2°47.495 -999 -999 -999 -999 -999
2008-06-10 06:50:03 51°15.731 2°47.47 -999 -999 -999 -999 -999
2008-06-10 06:50:08 51°15.731 2°47.444 -999 -999 -999 -999 -999
2008-06-10 06:50:13 51°15.729 2°47.418 -999 -999 -999 -999 -999
2008-06-10 06:50:18 51°15.729 2°47.393 -999 -999 -999 -999 -999
2008-06-10 06:50:23 51°15.727 2°47.367 -999 -999 -999 -999 -999
2008-06-10 06:50:28 51°15.727 2°47.342 -999 -999 -999 -999 -999
2008-06-10 06:50:33 51°15.726 2°47.316 -999 -999 -999 -999 -999
2008-06-10 06:50:38 51°15.725 2°47.291 -999 -999 -999 -999 -999
2008-06-10 06:50:43 51°15.724 2°47.265 -999 -999 -999 -999 -999
2008-06-10 06:50:48 51°15.723 2°47.24 -999 -999 -999 -999 -999
2008-06-10 06:50:53 51°15.722 2°47.214 -999 -999 -999 -999 -999
2008-06-10 06:50:58 51°15.72 2°47.188 -999 -999 -999 -999 -999
2008-06-10 06:51:03 51°15.719 2°47.163 -999 -999 -999 -999 -999
2008-06-10 06:51:08 51°15.718 2°47.137 -999 -999 -999 -999 -999
2008-06-10 06:51:13 51°15.717 2°47.112 -999 -999 -999 -999 -999
2008-06-10 06:51:18 51°15.715 2°47.087 -999 -999 -999 -999 -999
2008-06-10 06:51:23 51°15.714 2°47.061 -999 -999 -999 -999 -999
2008-06-10 06:51:28 51°15.712 2°47.036 -999 -999 -999 -999 -999
2008-06-10 06:51:33 51°15.71 2°47.01 -999 -999 -999 -999 -999
2008-06-10 06:51:38 51°15.708 2°46.985 -999 -999 -999 -999 -999
2008-06-10 06:51:43 51°15.706 2°46.96 -999 -999 -999 -999 -999
2008-06-10 06:51:48 51°15.704 2°46.934 -999 -999 -999 -999 -999
2008-06-10 06:51:53 51°15.702 2°46.909 -999 -999 -999 -999 -999
2008-06-10 06:51:58 51°15.701 2°46.884 -999 -999 -999 -999 -999
2008-06-10 06:52:03 51°15.699 2°46.858 -999 -999 -999 -999 -999
2008-06-10 06:52:08 51°15.698 2°46.832 -999 -999 -999 -999 -999
2008-06-10 06:52:13 51°15.697 2°46.807 -999 -999 -999 -999 -999
2008-06-10 06:52:18 51°15.696 2°46.781 -999 -999 -999 -999 -999
2008-06-10 06:52:23 51°15.694 2°46.756 -999 -999 -999 -999 -999
2008-06-10 06:52:28 51°15.693 2°46.73 -999 -999 -999 -999 -999
2008-06-10 06:52:33 51°15.691 2°46.704 -999 -999 -999 -999 -999
2008-06-10 06:52:38 51°15.69 2°46.679 -999 -999 -999 -999 -999
2008-06-10 06:52:43 51°15.689 2°46.653 -999 -999 -999 -999 -999
2008-06-10 06:52:48 51°15.688 2°46.628 -999 -999 -999 -999 -999
2008-06-10 06:52:53 51°15.686 2°46.603 -999 -999 -999 -999 -999
2008-06-10 06:52:58 51°15.684 2°46.577 -999 -999 -999 -999 -999
2008-06-10 06:53:03 51°15.683 2°46.552 -999 -999 -999 -999 -999
2008-06-10 06:53:08 51°15.681 2°46.527 -999 -999 -999 -999 -999
2008-06-10 06:53:13 51°15.678 2°46.502 -999 -999 -999 -999 -999
2008-06-10 06:53:18 51°15.676 2°46.477 -999 -999 -999 -999 -999
2008-06-10 06:53:23 51°15.674 2°46.452 -999 -999 -999 -999 -999
2008-06-10 06:53:28 51°15.671 2°46.427 -999 -999 -999 -999 -999
2008-06-10 06:53:33 51°15.669 2°46.402 -999 -999 -999 -999 -999
2008-06-10 06:53:38 51°15.666 2°46.377 -999 -999 -999 -999 -999
2008-06-10 06:53:43 51°15.664 2°46.352 -999 -999 -999 -999 -999
2008-06-10 06:53:48 51°15.662 2°46.327 -999 -999 -999 -999 -999
2008-06-10 06:53:53 51°15.66 2°46.302 -999 -999 -999 -999 -999
2008-06-10 06:53:58 51°15.658 2°46.277 -999 -999 -999 -999 -999
2008-06-10 06:54:03 51°15.656 2°46.252 -999 -999 -999 -999 -999
2008-06-10 06:54:08 51°15.655 2°46.227 -999 -999 -999 -999 -999
2008-06-10 06:54:13 51°15.654 2°46.202 -999 -999 -999 -999 -999
2008-06-10 06:54:18 51°15.653 2°46.176 -999 -999 -999 -999 -999
2008-06-10 06:54:23 51°15.651 2°46.152 -999 -999 -999 -999 -999
2008-06-10 06:54:28 51°15.65 2°46.126 -999 -999 -999 -999 -999
2008-06-10 06:54:33 51°15.649 2°46.101 -999 -999 -999 -999 -999
2008-06-10 06:54:38 51°15.648 2°46.076 -999 -999 -999 -999 -999
2008-06-10 06:54:43 51°15.647 2°46.051 -999 -999 -999 -999 -999
2008-06-10 06:54:48 51°15.646 2°46.026 -999 -999 -999 -999 -999
2008-06-10 06:54:53 51°15.645 2°46 -999 -999 -999 -999 -999
2008-06-10 06:54:58 51°15.644 2°45.975 -999 -999 -999 -999 -999
2008-06-10 06:55:03 51°15.642 2°45.95 -999 -999 -999 -999 -999
2008-06-10 06:55:08 51°15.641 2°45.925 -999 -999 -999 -999 -999
2008-06-10 06:55:13 51°15.639 2°45.9 -999 -999 -999 -999 -999
2008-06-10 06:55:18 51°15.637 2°45.875 -999 -999 -999 -999 -999
2008-06-10 06:55:23 51°15.635 2°45.85 -999 -999 -999 -999 -999
2008-06-10 06:55:28 51°15.633 2°45.825 -999 -999 -999 -999 -999
2008-06-10 06:55:33 51°15.631 2°45.8 -999 -999 -999 -999 -999
2008-06-10 06:55:38 51°15.629 2°45.775 -999 -999 -999 -999 -999
2008-06-10 06:55:43 51°15.627 2°45.75 -999 -999 -999 -999 -999
2008-06-10 06:55:48 51°15.624 2°45.725 -999 -999 -999 -999 -999
2008-06-10 06:55:53 51°15.622 2°45.7 -999 -999 -999 -999 -999
2008-06-10 06:55:58 51°15.62 2°45.675 -999 -999 -999 -999 -999
2008-06-10 06:56:03 51°15.618 2°45.65 -999 -999 -999 -999 -999
2008-06-10 06:56:08 51°15.616 2°45.625 -999 -999 -999 -999 -999
2008-06-10 06:56:13 51°15.613 2°45.6 -999 -999 -999 -999 -999
2008-06-10 06:56:18 51°15.611 2°45.575 -999 -999 -999 -999 -999
2008-06-10 06:56:23 51°15.609 2°45.55 -999 -999 -999 -999 -999
2008-06-10 06:56:28 51°15.607 2°45.525 -999 -999 -999 -999 -999
2008-06-10 06:56:33 51°15.605 2°45.499 -999 -999 -999 -999 -999
2008-06-10 06:56:38 51°15.603 2°45.474 -999 -999 -999 -999 -999
2008-06-10 06:56:43 51°15.601 2°45.449 -999 -999 -999 -999 -999
2008-06-10 06:56:48 51°15.599 2°45.424 -999 -999 -999 -999 -999
2008-06-10 06:56:53 51°15.597 2°45.399 -999 -999 -999 -999 -999
2008-06-10 06:56:58 51°15.595 2°45.374 -999 -999 -999 -999 -999
2008-06-10 06:57:03 51°15.594 2°45.349 -999 -999 -999 -999 -999
2008-06-10 06:57:08 51°15.592 2°45.324 -999 -999 -999 -999 -999
2008-06-10 06:57:13 51°15.591 2°45.298 -999 -999 -999 -999 -999
2008-06-10 06:57:18 51°15.589 2°45.273 -999 -999 -999 -999 -999
2008-06-10 06:57:23 51°15.589 2°45.248 -999 -999 -999 -999 -999
2008-06-10 06:57:28 51°15.587 2°45.222 -999 -999 -999 -999 -999
2008-06-10 06:57:33 51°15.586 2°45.197 -999 -999 -999 -999 -999
2008-06-10 06:57:38 51°15.584 2°45.172 -999 -999 -999 -999 -999
2008-06-10 06:57:43 51°15.583 2°45.147 -999 -999 -999 -999 -999
2008-06-10 06:57:48 51°15.581 2°45.122 -999 -999 -999 -999 -999
2008-06-10 06:57:53 51°15.579 2°45.096 -999 -999 -999 -999 -999
2008-06-10 06:57:58 51°15.577 2°45.071 -999 -999 -999 -999 -999
2008-06-10 06:58:03 51°15.575 2°45.046 -999 -999 -999 -999 -999
2008-06-10 06:58:08 51°15.573 2°45.021 -999 -999 -999 -999 -999
2008-06-10 06:58:13 51°15.571 2°44.996 -999 -999 -999 -999 -999
2008-06-10 06:58:18 51°15.57 2°44.971 -999 -999 -999 -999 -999
2008-06-10 06:58:23 51°15.567 2°44.946 -999 -999 -999 -999 -999
2008-06-10 06:58:28 51°15.566 2°44.921 -999 -999 -999 -999 -999
2008-06-10 06:58:33 51°15.564 2°44.896 -999 -999 -999 -999 -999
2008-06-10 06:58:38 51°15.561 2°44.871 -999 -999 -999 -999 -999
2008-06-10 06:58:43 51°15.56 2°44.846 -999 -999 -999 -999 -999
2008-06-10 06:58:48 51°15.558 2°44.821 -999 -999 -999 -999 -999
2008-06-10 06:58:53 51°15.556 2°44.796 -999 -999 -999 -999 -999
2008-06-10 06:58:58 51°15.555 2°44.771 -999 -999 -999 -999 -999
2008-06-10 06:59:03 51°15.553 2°44.745 -999 -999 -999 -999 -999
2008-06-10 06:59:08 51°15.552 2°44.72 -999 -999 -999 -999 -999
2008-06-10 06:59:13 51°15.55 2°44.695 -999 -999 -999 -999 -999
2008-06-10 06:59:18 51°15.548 2°44.67 -999 -999 -999 -999 -999
2008-06-10 06:59:23 51°15.546 2°44.645 -999 -999 -999 -999 -999
2008-06-10 06:59:28 51°15.544 2°44.62 -999 -999 -999 -999 -999
2008-06-10 06:59:33 51°15.542 2°44.595 -999 -999 -999 -999 -999
2008-06-10 06:59:38 51°15.541 2°44.57 -999 -999 -999 -999 -999
2008-06-10 06:59:43 51°15.539 2°44.545 -999 -999 -999 -999 -999
2008-06-10 06:59:48 51°15.537 2°44.52 -999 -999 -999 -999 -999
2008-06-10 06:59:53 51°15.535 2°44.495 -999 -999 -999 -999 -999
2008-06-10 06:59:58 51°15.534 2°44.469 -999 -999 -999 -999 -999
2008-06-10 07:00:03 51°15.533 2°44.444 -999 -999 -999 -999 -999
2008-06-10 07:00:08 51°15.532 2°44.418 -999 -999 -999 -999 -999
2008-06-10 07:00:13 51°15.531 2°44.393 -999 -999 -999 -999 -999
2008-06-10 07:00:18 51°15.53 2°44.368 -999 -999 -999 -999 -999
2008-06-10 07:00:23 51°15.529 2°44.342 -999 -999 -999 -999 -999
2008-06-10 07:00:28 51°15.528 2°44.317 -999 -999 -999 -999 -999
2008-06-10 07:00:33 51°15.528 2°44.291 -999 -999 -999 -999 -999
2008-06-10 07:00:38 51°15.526 2°44.266 -999 -999 -999 -999 -999
2008-06-10 07:00:43 51°15.525 2°44.24 -999 -999 -999 -999 -999
2008-06-10 07:00:48 51°15.525 2°44.214 -999 -999 -999 -999 -999
2008-06-10 07:00:53 51°15.524 2°44.189 -999 -999 -999 -999 -999
2008-06-10 07:00:58 51°15.523 2°44.163 -999 -999 -999 -999 -999
2008-06-10 07:01:03 51°15.522 2°44.138 -999 -999 -999 -999 -999
2008-06-10 07:01:08 51°15.521 2°44.112 -999 -999 -999 -999 -999
2008-06-10 07:01:13 51°15.519 2°44.087 -999 -999 -999 -999 -999
2008-06-10 07:01:18 51°15.518 2°44.061 -999 -999 -999 -999 -999
2008-06-10 07:01:23 51°15.516 2°44.036 -999 -999 -999 -999 -999
2008-06-10 07:01:28 51°15.513 2°44.01 -999 -999 -999 -999 -999
2008-06-10 07:01:33 51°15.511 2°43.985 -999 -999 -999 -999 -999
2008-06-10 07:01:38 51°15.509 2°43.96 -999 -999 -999 -999 -999
2008-06-10 07:01:43 51°15.506 2°43.935 -999 -999 -999 -999 -999
2008-06-10 07:01:48 51°15.504 2°43.909 -999 -999 -999 -999 -999
2008-06-10 07:01:53 51°15.501 2°43.884 -999 -999 -999 -999 -999
2008-06-10 07:01:58 51°15.499 2°43.859 -999 -999 -999 -999 -999
2008-06-10 07:02:03 51°15.496 2°43.833 -999 -999 -999 -999 -999
2008-06-10 07:02:08 51°15.494 2°43.808 -999 -999 -999 -999 -999
2008-06-10 07:02:13 51°15.492 2°43.783 -999 -999 -999 -999 -999
2008-06-10 07:02:18 51°15.49 2°43.757 -999 -999 -999 -999 -999
2008-06-10 07:02:23 51°15.487 2°43.732 -999 -999 -999 -999 -999
2008-06-10 07:02:28 51°15.485 2°43.706 -999 -999 -999 -999 -999
2008-06-10 07:02:33 51°15.483 2°43.681 -999 -999 -999 -999 -999
2008-06-10 07:02:38 51°15.48 2°43.655 -999 -999 -999 -999 -999
2008-06-10 07:02:43 51°15.478 2°43.629 -999 -999 -999 -999 -999
2008-06-10 07:02:48 51°15.476 2°43.604 -999 -999 -999 -999 -999
2008-06-10 07:02:53 51°15.474 2°43.578 -999 -999 -999 -999 -999
2008-06-10 07:02:58 51°15.471 2°43.553 -999 -999 -999 -999 -999
2008-06-10 07:03:03 51°15.469 2°43.527 -999 -999 -999 -999 -999
2008-06-10 07:03:08 51°15.467 2°43.501 -999 -999 -999 -999 -999
2008-06-10 07:03:13 51°15.465 2°43.475 -999 -999 -999 -999 -999
2008-06-10 07:03:18 51°15.462 2°43.45 -999 -999 -999 -999 -999
2008-06-10 07:03:23 51°15.46 2°43.424 -999 -999 -999 -999 -999
2008-06-10 07:03:28 51°15.458 2°43.398 -999 -999 -999 -999 -999
2008-06-10 07:03:33 51°15.456 2°43.373 -999 -999 -999 -999 -999
2008-06-10 07:03:38 51°15.455 2°43.347 -999 -999 -999 -999 -999
2008-06-10 07:03:43 51°15.453 2°43.321 -999 -999 -999 -999 -999
2008-06-10 07:03:48 51°15.452 2°43.295 -999 -999 -999 -999 -999
2008-06-10 07:03:53 51°15.451 2°43.269 -999 -999 -999 -999 -999
2008-06-10 07:03:58 51°15.45 2°43.243 -999 -999 -999 -999 -999
2008-06-10 07:04:03 51°15.448 2°43.217 -999 -999 -999 -999 -999
2008-06-10 07:04:08 51°15.446 2°43.191 -999 -999 -999 -999 -999
2008-06-10 07:04:13 51°15.444 2°43.166 -999 -999 -999 -999 -999
2008-06-10 07:04:18 51°15.442 2°43.14 -999 -999 -999 -999 -999
2008-06-10 07:04:23 51°15.44 2°43.115 -999 -999 -999 -999 -999
2008-06-10 07:04:28 51°15.437 2°43.089 -999 -999 -999 -999 -999
2008-06-10 07:04:33 51°15.434 2°43.063 -999 -999 -999 -999 -999
2008-06-10 07:04:38 51°15.432 2°43.038 -999 -999 -999 -999 -999
2008-06-10 07:04:43 51°15.429 2°43.012 -999 -999 -999 -999 -999
2008-06-10 07:04:48 51°15.426 2°42.987 -999 -999 -999 -999 -999
2008-06-10 07:04:53 51°15.423 2°42.961 -999 -999 -999 -999 -999
2008-06-10 07:04:58 51°15.421 2°42.936 -999 -999 -999 -999 -999
2008-06-10 07:05:03 51°15.418 2°42.91 -999 -999 -999 -999 -999
2008-06-10 07:05:08 51°15.415 2°42.885 -999 -999 -999 -999 -999
2008-06-10 07:05:13 51°15.413 2°42.859 -999 -999 -999 -999 -999
2008-06-10 07:05:18 51°15.41 2°42.834 -999 -999 -999 -999 -999
2008-06-10 07:05:23 51°15.407 2°42.808 -999 -999 -999 -999 -999
2008-06-10 07:05:28 51°15.404 2°42.783 -999 -999 -999 -999 -999
2008-06-10 07:05:33 51°15.401 2°42.757 -999 -999 -999 -999 -999
2008-06-10 07:05:38 51°15.398 2°42.731 -999 -999 -999 -999 -999
2008-06-10 07:05:43 51°15.395 2°42.706 -999 -999 -999 -999 -999
2008-06-10 07:05:48 51°15.392 2°42.68 -999 -999 -999 -999 -999
2008-06-10 07:05:53 51°15.39 2°42.654 -999 -999 -999 -999 -999
2008-06-10 07:05:58 51°15.386 2°42.629 -999 -999 -999 -999 -999
2008-06-10 07:06:03 51°15.383 2°42.603 -999 -999 -999 -999 -999
2008-06-10 07:06:08 51°15.38 2°42.577 -999 -999 -999 -999 -999
2008-06-10 07:06:13 51°15.377 2°42.552 -999 -999 -999 -999 -999
2008-06-10 07:06:18 51°15.374 2°42.526 -999 -999 -999 -999 -999
2008-06-10 07:06:23 51°15.372 2°42.5 -999 -999 -999 -999 -999
2008-06-10 07:06:28 51°15.369 2°42.475 -999 -999 -999 -999 -999
2008-06-10 07:06:33 51°15.366 2°42.449 -999 -999 -999 -999 -999
2008-06-10 07:06:38 51°15.363 2°42.423 -999 -999 -999 -999 -999
2008-06-10 07:06:43 51°15.36 2°42.398 -999 -999 -999 -999 -999
2008-06-10 07:06:48 51°15.357 2°42.372 -999 -999 -999 -999 -999
2008-06-10 07:06:53 51°15.354 2°42.347 -999 -999 -999 -999 -999
2008-06-10 07:06:58 51°15.35 2°42.321 -999 -999 -999 -999 -999
2008-06-10 07:07:03 51°15.348 2°42.295 -999 -999 -999 -999 -999
2008-06-10 07:07:08 51°15.344 2°42.27 -999 -999 -999 -999 -999
2008-06-10 07:07:13 51°15.342 2°42.244 -999 -999 -999 -999 -999
2008-06-10 07:07:18 51°15.34 2°42.218 -999 -999 -999 -999 -999
2008-06-10 07:07:23 51°15.337 2°42.192 -999 -999 -999 -999 -999
2008-06-10 07:07:28 51°15.335 2°42.167 -999 -999 -999 -999 -999
2008-06-10 07:07:33 51°15.333 2°42.141 -999 -999 -999 -999 -999
2008-06-10 07:07:38 51°15.33 2°42.115 -999 -999 -999 -999 -999
2008-06-10 07:07:43 51°15.328 2°42.089 -999 -999 -999 -999 -999
2008-06-10 07:07:48 51°15.326 2°42.063 -999 -999 -999 -999 -999
2008-06-10 07:07:53 51°15.324 2°42.037 -999 -999 -999 -999 -999
2008-06-10 07:07:58 51°15.322 2°42.011 -999 -999 -999 -999 -999
2008-06-10 07:08:03 51°15.32 2°41.985 -999 -999 -999 -999 -999
2008-06-10 07:08:08 51°15.318 2°41.959 -999 -999 -999 -999 -999
2008-06-10 07:08:13 51°15.315 2°41.933 -999 -999 -999 -999 -999
2008-06-10 07:08:18 51°15.313 2°41.907 -999 -999 -999 -999 -999
2008-06-10 07:08:23 51°15.311 2°41.881 -999 -999 -999 -999 -999
2008-06-10 07:08:28 51°15.309 2°41.855 -999 -999 -999 -999 -999
2008-06-10 07:08:33 51°15.306 2°41.829 -999 -999 -999 -999 -999
2008-06-10 07:08:38 51°15.305 2°41.803 -999 -999 -999 -999 -999
2008-06-10 07:08:43 51°15.302 2°41.777 -999 -999 -999 -999 -999
2008-06-10 07:08:48 51°15.3 2°41.75 -999 -999 -999 -999 -999
2008-06-10 07:08:53 51°15.298 2°41.724 -999 -999 -999 -999 -999
2008-06-10 07:08:58 51°15.295 2°41.699 -999 -999 -999 -999 -999
2008-06-10 07:09:03 51°15.292 2°41.673 -999 -999 -999 -999 -999
2008-06-10 07:09:08 51°15.289 2°41.647 -999 -999 -999 -999 -999
2008-06-10 07:09:13 51°15.286 2°41.621 -999 -999 -999 -999 -999
2008-06-10 07:09:18 51°15.283 2°41.596 -999 -999 -999 -999 -999
2008-06-10 07:09:23 51°15.28 2°41.57 -999 -999 -999 -999 -999
2008-06-10 07:09:28 51°15.277 2°41.545 -999 -999 -999 -999 -999
2008-06-10 07:09:33 51°15.273 2°41.519 -999 -999 -999 -999 -999
2008-06-10 07:09:38 51°15.27 2°41.494 -999 -999 -999 -999 -999
2008-06-10 07:09:43 51°15.267 2°41.468 -999 -999 -999 -999 -999
2008-06-10 07:09:48 51°15.264 2°41.443 -999 -999 -999 -999 -999
2008-06-10 07:09:53 51°15.261 2°41.417 -999 -999 -999 -999 -999
2008-06-10 07:09:58 51°15.258 2°41.392 -999 -999 -999 -999 -999
2008-06-10 07:10:03 51°15.256 2°41.366 -999 -999 -999 -999 -999
2008-06-10 07:10:08 51°15.253 2°41.341 -999 -999 -999 -999 -999
2008-06-10 07:10:13 51°15.25 2°41.315 -999 -999 -999 -999 -999
2008-06-10 07:10:18 51°15.248 2°41.289 -999 -999 -999 -999 -999
2008-06-10 07:10:23 51°15.245 2°41.264 -999 -999 -999 -999 -999
2008-06-10 07:10:28 51°15.242 2°41.238 -999 -999 -999 -999 -999
2008-06-10 07:10:33 51°15.24 2°41.213 -999 -999 -999 -999 -999
2008-06-10 07:10:38 51°15.239 2°41.187 -999 -999 -999 -999 -999
2008-06-10 07:10:43 51°15.237 2°41.161 -999 -999 -999 -999 -999
2008-06-10 07:10:48 51°15.236 2°41.135 -999 -999 -999 -999 -999
2008-06-10 07:10:53 51°15.236 2°41.109 -999 -999 -999 -999 -999
2008-06-10 07:10:58 51°15.235 2°41.082 -999 -999 -999 -999 -999
2008-06-10 07:11:03 51°15.235 2°41.056 -999 -999 -999 -999 -999
2008-06-10 07:11:08 51°15.235 2°41.03 -999 -999 -999 -999 -999
2008-06-10 07:11:13 51°15.235 2°41.004 -999 -999 -999 -999 -999
2008-06-10 07:11:18 51°15.235 2°40.977 -999 -999 -999 -999 -999
2008-06-10 07:11:23 51°15.235 2°40.951 -999 -999 -999 -999 -999
2008-06-10 07:11:28 51°15.235 2°40.925 -999 -999 -999 -999 -999
2008-06-10 07:11:33 51°15.235 2°40.899 -999 -999 -999 -999 -999
2008-06-10 07:11:38 51°15.235 2°40.873 -999 -999 -999 -999 -999
2008-06-10 07:11:43 51°15.236 2°40.847 -999 -999 -999 -999 -999
2008-06-10 07:11:48 51°15.236 2°40.821 -999 -999 -999 -999 -999
2008-06-10 07:11:53 51°15.236 2°40.794 -999 -999 -999 -999 -999
2008-06-10 07:11:58 51°15.236 2°40.768 -999 -999 -999 -999 -999
2008-06-10 07:12:03 51°15.235 2°40.742 -999 -999 -999 -999 -999
2008-06-10 07:12:08 51°15.235 2°40.716 -999 -999 -999 -999 -999
2008-06-10 07:12:13 51°15.235 2°40.69 -999 -999 -999 -999 -999
2008-06-10 07:12:18 51°15.234 2°40.664 -999 -999 -999 -999 -999
2008-06-10 07:12:23 51°15.234 2°40.638 -999 -999 -999 -999 -999
2008-06-10 07:12:28 51°15.233 2°40.612 -999 -999 -999 -999 -999
2008-06-10 07:12:33 51°15.233 2°40.586 -999 -999 -999 -999 -999
2008-06-10 07:12:38 51°15.233 2°40.56 -999 -999 -999 -999 -999
2008-06-10 07:12:43 51°15.232 2°40.533 -999 -999 -999 -999 -999
2008-06-10 07:12:48 51°15.232 2°40.507 -999 -999 -999 -999 -999
2008-06-10 07:12:53 51°15.231 2°40.481 -999 -999 -999 -999 -999
2008-06-10 07:12:58 51°15.231 2°40.455 -999 -999 -999 -999 -999
2008-06-10 07:13:03 51°15.23 2°40.428 -999 -999 -999 -999 -999
2008-06-10 07:13:08 51°15.23 2°40.402 -999 -999 -999 -999 -999
2008-06-10 07:13:13 51°15.229 2°40.376 -999 -999 -999 -999 -999
2008-06-10 07:13:18 51°15.229 2°40.35 -999 -999 -999 -999 -999
2008-06-10 07:13:23 51°15.228 2°40.323 -999 -999 -999 -999 -999
2008-06-10 07:13:28 51°15.227 2°40.297 -999 -999 -999 -999 -999
2008-06-10 07:13:33 51°15.227 2°40.271 -999 -999 -999 -999 -999
2008-06-10 07:13:38 51°15.226 2°40.244 -999 -999 -999 -999 -999
2008-06-10 07:13:43 51°15.225 2°40.218 -999 -999 -999 -999 -999
2008-06-10 07:13:48 51°15.224 2°40.192 -999 -999 -999 -999 -999
2008-06-10 07:13:53 51°15.223 2°40.165 -999 -999 -999 -999 -999
2008-06-10 07:13:58 51°15.222 2°40.139 -999 -999 -999 -999 -999
2008-06-10 07:14:03 51°15.22 2°40.113 -999 -999 -999 -999 -999
2008-06-10 07:14:08 51°15.219 2°40.087 -999 -999 -999 -999 -999
2008-06-10 07:14:13 51°15.217 2°40.061 -999 -999 -999 -999 -999
2008-06-10 07:14:18 51°15.216 2°40.035 -999 -999 -999 -999 -999
2008-06-10 07:14:23 51°15.214 2°40.008 -999 -999 -999 -999 -999
2008-06-10 07:14:28 51°15.212 2°39.982 -999 -999 -999 -999 -999
2008-06-10 07:14:33 51°15.21 2°39.956 -999 -999 -999 -999 -999
2008-06-10 07:14:38 51°15.209 2°39.93 -999 -999 -999 -999 -999
2008-06-10 07:14:43 51°15.208 2°39.903 -999 -999 -999 -999 -999
2008-06-10 07:14:48 51°15.207 2°39.877 -999 -999 -999 -999 -999
2008-06-10 07:14:53 51°15.206 2°39.851 -999 -999 -999 -999 -999
2008-06-10 07:14:58 51°15.206 2°39.824 -999 -999 -999 -999 -999
2008-06-10 07:15:03 51°15.205 2°39.797 -999 -999 -999 -999 -999
2008-06-10 07:15:08 51°15.204 2°39.771 -999 -999 -999 -999 -999
2008-06-10 07:15:13 51°15.204 2°39.744 -999 -999 -999 -999 -999
2008-06-10 07:15:18 51°15.203 2°39.718 -999 -999 -999 -999 -999
2008-06-10 07:15:23 51°15.203 2°39.691 -999 -999 -999 -999 -999
2008-06-10 07:15:28 51°15.202 2°39.665 -999 -999 -999 -999 -999
2008-06-10 07:15:33 51°15.201 2°39.638 -999 -999 -999 -999 -999
2008-06-10 07:15:38 51°15.2 2°39.612 -999 -999 -999 -999 -999
2008-06-10 07:15:43 51°15.198 2°39.585 -999 -999 -999 -999 -999
2008-06-10 07:15:48 51°15.197 2°39.559 -999 -999 -999 -999 -999
2008-06-10 07:15:53 51°15.196 2°39.533 -999 -999 -999 -999 -999
2008-06-10 07:15:58 51°15.195 2°39.506 -999 -999 -999 -999 -999
2008-06-10 07:16:03 51°15.193 2°39.48 -999 -999 -999 -999 -999
2008-06-10 07:16:08 51°15.192 2°39.454 -999 -999 -999 -999 -999
2008-06-10 07:16:13 51°15.191 2°39.428 -999 -999 -999 -999 -999
2008-06-10 07:16:18 51°15.189 2°39.401 -999 -999 -999 -999 -999
2008-06-10 07:16:23 51°15.188 2°39.375 -999 -999 -999 -999 -999
2008-06-10 07:16:28 51°15.186 2°39.349 -999 -999 -999 -999 -999
2008-06-10 07:16:33 51°15.185 2°39.322 -999 -999 -999 -999 -999
2008-06-10 07:16:38 51°15.184 2°39.296 -999 -999 -999 -999 -999
2008-06-10 07:16:43 51°15.182 2°39.27 -999 -999 -999 -999 -999
2008-06-10 07:16:48 51°15.181 2°39.243 -999 -999 -999 -999 -999
2008-06-10 07:16:53 51°15.179 2°39.217 -999 -999 -999 -999 -999
2008-06-10 07:16:58 51°15.178 2°39.191 -999 -999 -999 -999 -999
2008-06-10 07:17:03 51°15.177 2°39.164 -999 -999 -999 -999 -999
2008-06-10 07:17:08 51°15.175 2°39.139 -999 -999 -999 -999 -999
2008-06-10 07:17:13 51°15.174 2°39.114 -999 -999 -999 -999 -999
2008-06-10 07:17:18 51°15.173 2°39.092 -999 -999 -999 -999 -999
2008-06-10 07:17:23 51°15.171 2°39.071 -999 -999 -999 -999 -999
2008-06-10 07:17:28 51°15.17 2°39.051 -999 -999 -999 -999 -999
2008-06-10 07:17:33 51°15.169 2°39.033 -999 -999 -999 -999 -999
2008-06-10 07:17:38 51°15.168 2°39.016 -999 -999 -999 -999 -999
2008-06-10 07:17:43 51°15.167 2°39 -999 -999 -999 -999 -999
2008-06-10 07:17:48 51°15.165 2°38.985 -999 -999 -999 -999 -999
2008-06-10 07:17:53 51°15.164 2°38.971 -999 -999 -999 -999 -999
2008-06-10 07:17:58 51°15.162 2°38.957 -999 -999 -999 -999 -999
2008-06-10 07:18:03 51°15.161 2°38.943 -999 -999 -999 -999 -999
2008-06-10 07:18:08 51°15.159 2°38.93 -999 -999 -999 -999 -999
2008-06-10 07:18:13 51°15.157 2°38.916 -999 -999 -999 -999 -999
2008-06-10 07:18:18 51°15.154 2°38.903 -999 -999 -999 -999 -999
2008-06-10 07:18:23 51°15.152 2°38.89 -999 -999 -999 -999 -999
2008-06-10 07:18:28 51°15.15 2°38.876 -999 -999 -999 -999 -999
2008-06-10 07:18:33 51°15.147 2°38.862 -999 -999 -999 -999 -999
2008-06-10 07:18:38 51°15.144 2°38.848 -999 -999 -999 -999 -999
2008-06-10 07:18:43 51°15.141 2°38.834 -999 -999 -999 -999 -999
2008-06-10 07:18:48 51°15.138 2°38.819 -999 -999 -999 -999 -999
2008-06-10 07:18:53 51°15.135 2°38.804 -999 -999 -999 -999 -999
2008-06-10 07:18:58 51°15.132 2°38.789 -999 -999 -999 -999 -999
2008-06-10 07:19:03 51°15.13 2°38.774 -999 -999 -999 -999 -999
2008-06-10 07:19:08 51°15.129 2°38.758 -999 -999 -999 -999 -999
2008-06-10 07:19:13 51°15.127 2°38.742 -999 -999 -999 -999 -999
2008-06-10 07:19:18 51°15.126 2°38.725 -999 -999 -999 -999 -999
2008-06-10 07:19:23 51°15.125 2°38.709 -999 -999 -999 -999 -999
2008-06-10 07:19:28 51°15.124 2°38.692 -999 -999 -999 -999 -999
2008-06-10 07:19:33 51°15.123 2°38.675 -999 -999 -999 -999 -999
2008-06-10 07:19:38 51°15.121 2°38.658 -999 -999 -999 -999 -999
2008-06-10 07:19:43 51°15.12 2°38.641 -999 -999 -999 -999 -999
2008-06-10 07:19:48 51°15.118 2°38.624 -999 -999 -999 -999 -999
2008-06-10 07:19:53 51°15.116 2°38.607 -999 -999 -999 -999 -999
2008-06-10 07:19:58 51°15.114 2°38.589 -999 -999 -999 -999 -999
2008-06-10 07:20:03 51°15.112 2°38.572 -999 -999 -999 -999 -999
2008-06-10 07:20:08 51°15.11 2°38.555 -999 -999 -999 -999 -999
2008-06-10 07:20:13 51°15.108 2°38.538 -999 -999 -999 -999 -999
2008-06-10 07:20:18 51°15.105 2°38.521 -999 -999 -999 -999 -999
2008-06-10 07:20:23 51°15.102 2°38.504 -999 -999 -999 -999 -999
2008-06-10 07:20:28 51°15.099 2°38.487 -999 -999 -999 -999 -999
2008-06-10 07:20:33 51°15.097 2°38.47 -999 -999 -999 -999 -999
2008-06-10 07:20:38 51°15.094 2°38.455 -999 -999 -999 -999 -999
2008-06-10 07:20:43 51°15.091 2°38.441 -999 -999 -999 -999 -999
2008-06-10 07:20:48 51°15.088 2°38.428 -999 -999 -999 -999 -999
2008-06-10 07:20:53 51°15.085 2°38.416 -999 -999 -999 -999 -999
2008-06-10 07:20:58 51°15.083 2°38.405 -999 -999 -999 -999 -999
2008-06-10 07:21:03 51°15.08 2°38.395 -999 -999 -999 -999 -999
2008-06-10 07:21:08 51°15.077 2°38.386 -999 -999 -999 -999 -999
2008-06-10 07:21:13 51°15.074 2°38.378 -999 -999 -999 -999 -999
2008-06-10 07:21:18 51°15.071 2°38.37 -999 -999 -999 -999 -999
2008-06-10 07:21:23 51°15.068 2°38.363 -999 -999 -999 -999 -999
2008-06-10 07:21:28 51°15.065 2°38.357 -999 -999 -999 -999 -999
2008-06-10 07:21:33 51°15.062 2°38.351 -999 -999 -999 -999 -999
2008-06-10 07:21:38 51°15.059 2°38.346 -999 -999 -999 -999 -999
2008-06-10 07:21:43 51°15.056 2°38.341 -999 -999 -999 -999 -999
2008-06-10 07:21:48 51°15.054 2°38.337 -999 -999 -999 -999 -999
2008-06-10 07:21:53 51°15.051 2°38.333 -999 -999 -999 -999 -999
2008-06-10 07:21:58 51°15.048 2°38.329 -999 -999 -999 -999 -999
2008-06-10 07:22:03 51°15.046 2°38.326 -999 -999 -999 -999 -999
2008-06-10 07:22:08 51°15.043 2°38.322 -999 -999 -999 -999 -999
2008-06-10 07:22:13 51°15.041 2°38.319 -999 -999 -999 -999 -999
2008-06-10 07:22:18 51°15.038 2°38.317 -999 -999 -999 -999 -999
2008-06-10 07:22:23 51°15.036 2°38.314 -999 -999 -999 -999 -999
2008-06-10 07:22:28 51°15.033 2°38.312 -999 -999 -999 -999 -999
2008-06-10 07:22:33 51°15.031 2°38.31 -999 -999 -999 -999 -999
2008-06-10 07:22:38 51°15.029 2°38.308 -999 -999 -999 -999 -999
2008-06-10 07:22:43 51°15.027 2°38.307 -999 -999 -999 -999 -999
2008-06-10 07:22:48 51°15.024 2°38.305 -999 -999 -999 -999 -999
2008-06-10 07:22:53 51°15.022 2°38.304 -999 -999 -999 -999 -999
2008-06-10 07:22:58 51°15.02 2°38.302 -999 -999 -999 -999 -999
2008-06-10 07:23:03 51°15.018 2°38.301 -999 -999 -999 -999 -999
2008-06-10 07:23:08 51°15.016 2°38.299 -999 -999 -999 -999 -999
2008-06-10 07:23:13 51°15.014 2°38.297 -999 -999 -999 -999 -999
2008-06-10 07:23:18 51°15.011 2°38.295 -999 -999 -999 -999 -999
2008-06-10 07:23:23 51°15.008 2°38.292 -999 -999 -999 -999 -999
2008-06-10 07:23:28 51°15.005 2°38.289 -999 -999 -999 -999 -999
2008-06-10 07:23:33 51°15.002 2°38.284 -999 -999 -999 -999 -999
2008-06-10 07:23:38 51°14.999 2°38.279 -999 -999 -999 -999 -999
2008-06-10 07:23:43 51°14.997 2°38.274 -999 -999 -999 -999 -999
2008-06-10 07:23:48 51°14.995 2°38.267 -999 -999 -999 -999 -999
2008-06-10 07:23:53 51°14.993 2°38.26 -999 -999 -999 -999 -999
2008-06-10 07:23:58 51°14.992 2°38.253 -999 -999 -999 -999 -999
2008-06-10 07:24:03 51°14.991 2°38.244 -999 -999 -999 -999 -999
2008-06-10 07:24:08 51°14.991 2°38.236 -999 -999 -999 -999 -999
2008-06-10 07:24:13 51°14.991 2°38.228 -999 -999 -999 -999 -999
2008-06-10 07:24:18 51°14.992 2°38.219 -999 -999 -999 -999 -999
2008-06-10 07:24:23 51°14.994 2°38.211 -999 -999 -999 -999 -999
2008-06-10 07:24:28 51°14.996 2°38.202 -999 -999 -999 -999 -999
2008-06-10 07:24:33 51°14.999 2°38.194 -999 -999 -999 -999 -999
2008-06-10 07:24:38 51°15.002 2°38.186 -999 -999 -999 -999 -999
2008-06-10 07:24:43 51°15.006 2°38.179 -999 -999 -999 -999 -999
2008-06-10 07:24:48 51°15.01 2°38.172 -999 -999 -999 -999 -999
2008-06-10 07:24:53 51°15.015 2°38.166 -999 -999 -999 -999 -999
2008-06-10 07:24:58 51°15.02 2°38.161 -999 -999 -999 -999 -999
2008-06-10 07:25:03 51°15.025 2°38.156 -999 -999 -999 -999 -999
2008-06-10 07:25:08 51°15.03 2°38.151 -999 -999 -999 -999 -999
2008-06-10 07:25:13 51°15.035 2°38.148 -999 -999 -999 -999 -999
2008-06-10 07:25:18 51°15.04 2°38.144 -999 -999 -999 -999 -999
2008-06-10 07:25:23 51°15.045 2°38.141 -999 -999 -999 -999 -999
2008-06-10 07:25:28 51°15.05 2°38.138 -999 -999 -999 -999 -999
2008-06-10 07:25:33 51°15.056 2°38.136 -999 -999 -999 -999 -999
2008-06-10 07:25:38 51°15.061 2°38.133 -999 -999 -999 -999 -999
2008-06-10 07:25:43 51°15.066 2°38.132 -999 -999 -999 -999 -999
2008-06-10 07:25:48 51°15.071 2°38.13 -999 -999 -999 -999 -999
2008-06-10 07:25:53 51°15.075 2°38.129 -999 -999 -999 -999 -999
2008-06-10 07:25:58 51°15.08 2°38.129 -999 -999 -999 -999 -999
2008-06-10 07:26:03 51°15.085 2°38.128 -999 -999 -999 -999 -999
2008-06-10 07:26:08 51°15.089 2°38.127 -999 -999 -999 -999 -999
2008-06-10 07:26:13 51°15.094 2°38.127 -999 -999 -999 -999 -999
2008-06-10 07:26:18 51°15.098 2°38.127 -999 -999 -999 -999 -999
2008-06-10 07:26:23 51°15.102 2°38.126 -999 -999 -999 -999 -999
2008-06-10 07:26:28 51°15.107 2°38.126 -999 -999 -999 -999 -999
2008-06-10 07:26:33 51°15.111 2°38.126 -999 -999 -999 -999 -999
2008-06-10 07:26:38 51°15.115 2°38.126 -999 -999 -999 -999 -999
2008-06-10 07:26:43 51°15.119 2°38.126 -999 -999 -999 -999 -999
2008-06-10 07:26:48 51°15.123 2°38.127 -999 -999 -999 -999 -999
2008-06-10 07:26:53 51°15.126 2°38.127 -999 -999 -999 -999 -999
2008-06-10 07:26:58 51°15.13 2°38.127 -999 -999 -999 -999 -999
2008-06-10 07:27:03 51°15.134 2°38.127 -999 -999 -999 -999 -999
2008-06-10 07:27:08 51°15.138 2°38.128 -999 -999 -999 -999 -999
2008-06-10 07:27:13 51°15.142 2°38.128 -999 -999 -999 -999 -999
2008-06-10 07:27:18 51°15.145 2°38.129 -999 -999 -999 -999 -999
2008-06-10 07:27:23 51°15.149 2°38.13 -999 -999 -999 -999 -999
2008-06-10 07:27:28 51°15.153 2°38.131 -999 -999 -999 -999 -999
2008-06-10 07:27:33 51°15.157 2°38.131 -999 -999 -999 -999 -999
2008-06-10 07:27:38 51°15.161 2°38.132 -999 -999 -999 -999 -999
2008-06-10 07:27:43 51°15.164 2°38.132 -999 -999 -999 -999 -999
2008-06-10 07:27:48 51°15.168 2°38.132 -999 -999 -999 -999 -999
2008-06-10 07:27:53 51°15.171 2°38.133 -999 -999 -999 -999 -999
2008-06-10 07:27:58 51°15.175 2°38.133 -999 -999 -999 -999 -999
2008-06-10 07:28:03 51°15.179 2°38.133 -999 -999 -999 -999 -999
2008-06-10 07:28:08 51°15.183 2°38.134 -999 -999 -999 -999 -999
2008-06-10 07:28:13 51°15.186 2°38.134 -999 -999 -999 -999 -999
2008-06-10 07:28:18 51°15.19 2°38.135 -999 -999 -999 -999 -999
2008-06-10 07:28:23 51°15.194 2°38.135 -999 -999 -999 -999 -999
2008-06-10 07:28:28 51°15.198 2°38.136 -999 -999 -999 -999 -999
2008-06-10 07:28:33 51°15.202 2°38.136 -999 -999 -999 -999 -999
2008-06-10 07:28:38 51°15.206 2°38.137 -999 -999 -999 -999 -999
2008-06-10 07:28:43 51°15.21 2°38.137 -999 -999 -999 -999 -999
2008-06-10 07:28:48 51°15.213 2°38.138 -999 -999 -999 -999 -999
2008-06-10 07:28:53 51°15.217 2°38.138 -999 -999 -999 -999 -999
2008-06-10 07:28:58 51°15.221 2°38.138 -999 -999 -999 -999 -999
2008-06-10 07:29:03 51°15.225 2°38.138 -999 -999 -999 -999 -999
2008-06-10 07:29:08 51°15.228 2°38.138 -999 -999 -999 -999 -999
2008-06-10 07:29:13 51°15.232 2°38.139 -999 -999 -999 -999 -999
2008-06-10 07:29:18 51°15.236 2°38.139 -999 -999 -999 -999 -999
2008-06-10 07:29:23 51°15.24 2°38.139 -999 -999 -999 -999 -999
2008-06-10 07:29:28 51°15.244 2°38.139 -999 -999 -999 -999 -999
2008-06-10 07:29:33 51°15.248 2°38.14 -999 -999 -999 -999 -999
2008-06-10 07:29:38 51°15.252 2°38.14 -999 -999 -999 -999 -999
2008-06-10 07:29:43 51°15.255 2°38.141 -999 -999 -999 -999 -999
2008-06-10 07:29:48 51°15.259 2°38.141 -999 -999 -999 -999 -999
2008-06-10 07:29:53 51°15.263 2°38.142 -999 -999 -999 -999 -999
2008-06-10 07:29:58 51°15.267 2°38.142 -999 -999 -999 -999 -999
2008-06-10 07:30:03 51°15.271 2°38.142 -999 -999 -999 -999 -999
2008-06-10 07:30:08 51°15.275 2°38.142 -999 -999 -999 -999 -999
2008-06-10 07:30:13 51°15.279 2°38.142 -999 -999 -999 -999 -999
2008-06-10 07:30:18 51°15.282 2°38.142 -999 -999 -999 -999 -999
2008-06-10 07:30:23 51°15.286 2°38.142 -999 -999 -999 -999 -999
2008-06-10 07:30:28 51°15.29 2°38.143 -999 -999 -999 -999 -999
2008-06-10 07:30:33 51°15.294 2°38.143 -999 -999 -999 -999 -999
2008-06-10 07:30:38 51°15.298 2°38.143 -999 -999 -999 -999 -999
2008-06-10 07:30:43 51°15.302 2°38.143 -999 -999 -999 -999 -999
2008-06-10 07:30:48 51°15.306 2°38.143 -999 -999 -999 -999 -999
2008-06-10 07:30:53 51°15.309 2°38.143 -999 -999 -999 -999 -999
2008-06-10 07:30:58 51°15.313 2°38.144 -999 -999 -999 -999 -999
2008-06-10 07:31:03 51°15.317 2°38.144 -999 -999 -999 -999 -999
2008-06-10 07:31:08 51°15.321 2°38.144 -999 -999 -999 -999 -999
2008-06-10 07:31:13 51°15.325 2°38.144 -999 -999 -999 -999 -999
2008-06-10 07:31:18 51°15.329 2°38.144 -999 -999 -999 -999 -999
2008-06-10 07:31:23 51°15.333 2°38.144 -999 -999 -999 -999 -999
2008-06-10 07:31:28 51°15.336 2°38.144 -999 -999 -999 -999 -999
2008-06-10 07:31:33 51°15.34 2°38.144 -999 -999 -999 -999 -999
2008-06-10 07:31:38 51°15.344 2°38.144 -999 -999 -999 -999 -999
2008-06-10 07:31:43 51°15.348 2°38.144 -999 -999 -999 -999 -999
2008-06-10 07:31:48 51°15.352 2°38.144 -999 -999 -999 -999 -999
2008-06-10 07:31:53 51°15.355 2°38.144 -999 -999 -999 -999 -999
2008-06-10 07:31:58 51°15.359 2°38.145 -999 -999 -999 -999 -999
2008-06-10 07:32:03 51°15.363 2°38.145 -999 -999 -999 -999 -999
2008-06-10 07:32:08 51°15.367 2°38.145 -999 -999 -999 -999 -999
2008-06-10 07:32:13 51°15.371 2°38.145 -999 -999 -999 -999 -999
2008-06-10 07:32:18 51°15.375 2°38.145 -999 -999 -999 -999 -999
2008-06-10 07:32:23 51°15.379 2°38.146 -999 -999 -999 -999 -999
2008-06-10 07:32:28 51°15.382 2°38.146 -999 -999 -999 -999 -999
2008-06-10 07:32:33 51°15.386 2°38.146 -999 -999 -999 -999 -999
2008-06-10 07:32:38 51°15.39 2°38.146 -999 -999 -999 -999 -999
2008-06-10 07:32:43 51°15.394 2°38.147 -999 -999 -999 -999 -999
2008-06-10 07:32:48 51°15.398 2°38.147 -999 -999 -999 -999 -999
2008-06-10 07:32:53 51°15.402 2°38.147 -999 -999 -999 -999 -999
2008-06-10 07:32:58 51°15.405 2°38.147 -999 -999 -999 -999 -999
2008-06-10 07:33:03 51°15.409 2°38.148 -999 -999 -999 -999 -999
2008-06-10 07:33:08 51°15.413 2°38.148 -999 -999 -999 -999 -999
2008-06-10 07:33:13 51°15.417 2°38.148 -999 -999 -999 -999 -999
2008-06-10 07:33:18 51°15.421 2°38.148 -999 -999 -999 -999 -999
2008-06-10 07:33:23 51°15.425 2°38.149 -999 -999 -999 -999 -999
2008-06-10 07:33:28 51°15.429 2°38.149 -999 -999 -999 -999 -999
2008-06-10 07:33:33 51°15.432 2°38.15 -999 -999 -999 -999 -999
2008-06-10 07:33:38 51°15.436 2°38.15 -999 -999 -999 -999 -999
2008-06-10 07:33:43 51°15.44 2°38.151 -999 -999 -999 -999 -999
2008-06-10 07:33:48 51°15.444 2°38.151 -999 -999 -999 -999 -999
2008-06-10 07:33:53 51°15.448 2°38.152 -999 -999 -999 -999 -999
2008-06-10 07:33:58 51°15.452 2°38.152 -999 -999 -999 -999 -999
2008-06-10 07:34:03 51°15.456 2°38.153 -999 -999 -999 -999 -999
2008-06-10 07:34:08 51°15.459 2°38.154 -999 -999 -999 -999 -999
2008-06-10 07:34:13 51°15.463 2°38.154 -999 -999 -999 -999 -999
2008-06-10 07:34:18 51°15.467 2°38.155 -999 -999 -999 -999 -999
2008-06-10 07:34:23 51°15.471 2°38.155 -999 -999 -999 -999 -999
2008-06-10 07:34:28 51°15.475 2°38.156 -999 -999 -999 -999 -999
2008-06-10 07:34:33 51°15.479 2°38.157 -999 -999 -999 -999 -999
2008-06-10 07:34:38 51°15.483 2°38.157 -999 -999 -999 -999 -999
2008-06-10 07:34:43 51°15.486 2°38.158 -999 -999 -999 -999 -999
2008-06-10 07:34:48 51°15.49 2°38.159 -999 -999 -999 -999 -999
2008-06-10 07:34:53 51°15.494 2°38.159 -999 -999 -999 -999 -999
2008-06-10 07:34:58 51°15.498 2°38.16 -999 -999 -999 -999 -999
2008-06-10 07:35:03 51°15.502 2°38.161 -999 -999 -999 -999 -999
2008-06-10 07:35:08 51°15.506 2°38.162 -999 -999 -999 -999 -999
2008-06-10 07:35:13 51°15.51 2°38.163 -999 -999 -999 -999 -999
2008-06-10 07:35:18 51°15.513 2°38.164 -999 -999 -999 -999 -999
2008-06-10 07:35:23 51°15.517 2°38.165 -999 -999 -999 -999 -999
2008-06-10 07:35:28 51°15.521 2°38.166 -999 -999 -999 -999 -999
2008-06-10 07:35:33 51°15.525 2°38.168 -999 -999 -999 -999 -999
2008-06-10 07:35:38 51°15.528 2°38.169 -999 -999 -999 -999 -999
2008-06-10 07:35:43 51°15.532 2°38.17 -999 -999 -999 -999 -999
2008-06-10 07:35:48 51°15.536 2°38.172 -999 -999 -999 -999 -999
2008-06-10 07:35:53 51°15.54 2°38.174 -999 -999 -999 -999 -999
2008-06-10 07:35:58 51°15.544 2°38.175 -999 -999 -999 -999 -999
2008-06-10 07:36:03 51°15.547 2°38.177 -999 -999 -999 -999 -999
2008-06-10 07:36:08 51°15.551 2°38.178 -999 -999 -999 -999 -999
2008-06-10 07:36:13 51°15.555 2°38.18 -999 -999 -999 -999 -999
2008-06-10 07:36:18 51°15.559 2°38.181 -999 -999 -999 -999 -999
2008-06-10 07:36:23 51°15.562 2°38.183 -999 -999 -999 -999 -999
2008-06-10 07:36:28 51°15.566 2°38.185 -999 -999 -999 -999 -999
2008-06-10 07:36:33 51°15.57 2°38.186 -999 -999 -999 -999 -999
2008-06-10 07:36:38 51°15.573 2°38.188 -999 -999 -999 -999 -999
2008-06-10 07:36:43 51°15.577 2°38.19 -999 -999 -999 -999 -999
2008-06-10 07:36:48 51°15.581 2°38.192 -999 -999 -999 -999 -999
2008-06-10 07:36:53 51°15.585 2°38.193 -999 -999 -999 -999 -999
2008-06-10 07:36:58 51°15.589 2°38.195 -999 -999 -999 -999 -999
2008-06-10 07:37:03 51°15.593 2°38.197 -999 -999 -999 -999 -999
2008-06-10 07:37:08 51°15.596 2°38.199 -999 -999 -999 -999 -999
2008-06-10 07:37:13 51°15.6 2°38.201 -999 -999 -999 -999 -999
2008-06-10 07:37:18 51°15.604 2°38.202 -999 -999 -999 -999 -999
2008-06-10 07:37:23 51°15.608 2°38.204 -999 -999 -999 -999 -999